"datetime","# probes","# resolvers","can_ipv6","can_ipv6_prbs","can_tcp","can_tcp_prbs","can_tcp6","can_tcp6_prbs","does_ecs","does_ecs_prbs","does_flagday","does_flagday_prbs","does_rov4","does_rov4_prbs","does_rov6","does_rov6_prbs","does_qnamemin","doesnt_qnamemin","does_qnamemin_prbs","doesnt_qnamemin_prbs","does_nxdomain","doesnt_nxdomain","does_nxdomain_prbs","doesnt_nxdomain_prbs","has_ta_19036","hasnt_ta_19036","has_ta_19036_prbs","hasnt_ta_19036_prbs","has_ta_20326","hasnt_ta_20326","has_ta_20326_prbs","hasnt_ta_20326_prbs","can_rsamd5","cannot_rsamd5","broken_rsamd5","can_rsamd5_prbs","cannot_rsamd5_prbs","broken_rsamd5_prbs","can_dsa","cannot_dsa","broken_dsa","can_dsa_prbs","cannot_dsa_prbs","broken_dsa_prbs","can_rsasha1","cannot_rsasha1","broken_rsasha1","can_rsasha1_prbs","cannot_rsasha1_prbs","broken_rsasha1_prbs","can_dsansec3","cannot_dsansec3","broken_dsansec3","can_dsansec3_prbs","cannot_dsansec3_prbs","broken_dsansec3_prbs","can_rsansec3","cannot_rsansec3","broken_rsansec3","can_rsansec3_prbs","cannot_rsansec3_prbs","broken_rsansec3_prbs","can_rsasha256","cannot_rsasha256","broken_rsasha256","can_rsasha256_prbs","cannot_rsasha256_prbs","broken_rsasha256_prbs","can_rsasha512","cannot_rsasha512","broken_rsasha512","can_rsasha512_prbs","cannot_rsasha512_prbs","broken_rsasha512_prbs","can_eccgost","cannot_eccgost","broken_eccgost","can_eccgost_prbs","cannot_eccgost_prbs","broken_eccgost_prbs","can_ecdsa256","cannot_ecdsa256","broken_ecdsa256","can_ecdsa256_prbs","cannot_ecdsa256_prbs","broken_ecdsa256_prbs","can_ecdsa384","cannot_ecdsa384","broken_ecdsa384","can_ecdsa384_prbs","cannot_ecdsa384_prbs","broken_ecdsa384_prbs","can_ed25519","cannot_ed25519","broken_ed25519","can_ed25519_prbs","cannot_ed25519_prbs","broken_ed25519_prbs","can_ed448","cannot_ed448","broken_ed448","can_ed448_prbs","cannot_ed448_prbs","broken_ed448_prbs","can_gost","cannot_gost","broken_gost","can_gost_prbs","cannot_gost_prbs","broken_gost_prbs","can_sha384","cannot_sha384","broken_sha384","can_sha384_prbs","cannot_sha384_prbs","broken_sha384_prbs","is_internal","is_forwarding","is_external","is_internal_prbs","is_forwarding_prbs","is_external_prbs"
2017-06-20T23:59:59Z,269,484,460,259,484,269,453,256,55,53,0,0,0,0,0,0,0,484,0,269,5,476,2,264,0,0,0,0,0,0,0,0,340,106,6,184,76,23,353,103,0,192,83,0,358,94,0,206,67,0,352,104,0,192,84,0,359,94,0,206,67,0,359,94,0,206,67,0,359,93,0,206,66,0,1,483,0,7,268,0,356,97,0,204,68,0,356,98,0,204,69,0,0,484,0,0,269,0,0,484,0,0,269,0,0,484,0,23,269,0,357,96,0,205,68,0,393,43,46,219,39,42
2017-06-21T23:59:59Z,269,490,467,259,490,269,460,256,61,57,0,0,0,0,0,0,0,490,0,269,5,482,2,264,0,0,0,0,0,0,0,0,343,106,9,184,76,26,358,104,0,193,84,0,365,93,0,206,66,0,359,104,0,193,84,0,366,94,0,207,67,0,364,95,0,205,68,0,365,94,0,206,67,0,1,489,0,7,268,0,362,98,0,203,69,0,363,97,0,204,68,0,0,490,0,0,269,0,0,490,0,0,269,0,0,490,0,22,269,0,362,97,0,203,68,0,399,44,45,219,39,41
2017-06-22T23:59:59Z,268,484,461,258,484,268,453,254,52,51,0,0,0,0,0,0,0,484,0,268,5,476,2,263,0,0,0,0,0,0,0,0,342,102,8,184,74,26,358,98,0,195,81,0,360,92,0,206,65,0,358,99,0,194,82,0,365,89,0,209,63,0,362,91,0,206,64,0,362,91,0,206,64,0,3,481,0,8,267,0,358,96,0,204,67,0,358,96,0,203,67,1,0,484,0,0,268,0,0,484,0,0,268,0,0,484,0,22,268,0,360,93,0,205,66,0,396,42,44,220,37,40
2017-06-23T23:59:59Z,269,488,464,259,487,269,462,258,56,54,0,0,0,0,0,0,0,488,0,269,5,481,2,265,0,0,0,0,0,0,0,0,344,105,7,186,73,24,356,104,0,192,83,0,362,94,0,206,65,0,356,105,0,192,84,0,363,95,0,206,66,0,363,94,0,206,65,0,362,95,0,206,66,0,1,487,0,7,268,0,361,97,0,205,66,0,359,99,0,204,68,0,0,488,0,0,269,0,0,488,0,0,269,0,0,488,0,23,269,0,360,97,0,204,68,0,396,45,45,219,39,41
2017-06-24T23:59:59Z,270,489,466,261,488,270,459,259,61,59,0,0,0,0,0,0,0,489,0,270,5,481,2,265,0,0,0,0,0,0,0,0,345,105,7,187,74,26,357,105,0,194,84,0,367,91,0,211,63,0,358,104,0,194,83,0,365,94,0,208,66,0,365,93,0,208,65,0,363,95,0,207,67,0,1,488,0,7,269,0,361,98,0,206,68,0,361,98,0,206,68,0,0,489,0,0,270,0,0,489,0,0,270,0,0,489,0,23,270,0,365,94,0,208,66,0,397,46,44,220,40,41
2017-06-25T23:59:59Z,270,492,469,261,492,270,465,258,54,52,0,0,0,0,0,0,2,490,1,269,6,482,3,264,0,0,0,0,0,0,0,0,345,108,8,188,75,27,357,108,0,195,85,1,366,96,0,210,66,1,359,106,0,195,83,1,366,96,0,210,66,1,366,95,0,210,65,1,365,96,0,210,66,1,1,491,0,7,269,1,363,99,0,208,67,1,360,102,0,206,70,1,0,492,0,0,270,1,0,492,0,0,270,1,0,492,0,23,270,1,364,98,0,208,68,1,402,44,44,221,38,41
2017-06-26T23:59:59Z,269,490,467,260,490,269,446,257,56,55,0,0,0,0,0,0,0,490,0,269,6,480,3,262,0,0,0,0,0,0,0,0,346,107,8,187,75,26,357,106,0,194,85,0,366,96,0,208,67,0,359,104,0,195,83,0,368,94,0,210,65,0,365,96,0,209,67,0,367,94,0,210,65,0,1,489,0,7,268,0,364,98,0,208,67,0,365,98,0,208,67,0,0,490,0,0,269,0,0,490,0,0,269,0,0,490,0,23,269,0,363,99,0,208,68,0,399,44,45,220,39,42
2017-06-27T23:59:59Z,269,486,463,260,486,269,444,255,53,53,0,0,0,0,0,0,0,486,0,269,6,476,3,262,0,0,0,0,0,0,0,0,344,106,7,187,76,24,357,102,0,194,83,0,365,93,0,208,66,0,358,101,0,194,82,0,364,94,0,206,67,0,363,94,0,207,67,0,364,93,0,207,66,0,0,486,0,6,269,0,361,97,0,205,68,0,362,97,0,205,68,0,0,486,0,0,269,0,0,486,0,0,269,0,0,486,0,23,269,0,363,95,0,207,66,0,399,42,43,220,39,41
2017-06-28T23:59:59Z,270,487,463,260,487,270,451,258,57,55,0,0,0,0,0,0,0,487,0,270,6,477,3,263,0,0,0,0,0,0,0,0,348,103,7,190,74,25,359,101,0,196,83,1,366,93,0,209,65,1,360,100,0,196,82,0,367,92,0,210,66,1,366,92,0,210,66,1,367,91,0,210,65,1,3,484,0,8,269,1,361,98,0,207,68,1,362,98,0,206,68,1,0,487,0,1,270,0,0,487,0,0,270,1,0,487,0,22,270,1,360,99,0,206,69,1,397,44,44,220,39,41
2017-06-29T23:59:59Z,268,486,463,258,486,268,448,254,59,57,0,0,0,0,0,0,2,484,1,267,6,476,3,261,0,0,0,0,0,0,0,0,343,107,7,186,75,25,358,101,0,196,80,0,365,93,0,209,64,0,357,102,0,194,81,0,364,94,0,209,65,0,364,93,0,209,64,0,363,94,0,209,65,0,0,486,0,6,268,0,358,100,0,205,69,0,360,99,0,206,68,0,0,486,0,0,268,0,0,486,0,0,268,0,0,486,0,23,268,0,360,98,0,206,67,0,396,44,44,219,39,40
2017-06-30T23:59:59Z,272,488,465,262,488,272,455,260,58,55,0,0,0,0,0,0,2,486,1,271,6,478,3,265,0,0,0,0,0,0,0,0,346,105,8,189,74,25,358,103,0,196,83,0,367,93,0,210,65,0,357,104,0,195,84,0,367,94,0,211,66,0,364,95,0,209,67,0,365,94,0,209,66,0,0,488,0,6,272,0,362,98,0,207,68,0,361,100,0,206,70,0,0,488,0,0,272,0,0,488,0,0,272,0,0,488,0,22,272,0,365,95,0,209,67,0,400,45,41,221,40,39
2017-07-01T23:59:59Z,272,488,464,262,488,272,445,260,53,54,0,0,0,0,0,0,0,488,0,272,6,478,3,265,0,0,0,0,0,0,0,0,347,105,7,192,74,24,361,100,0,199,82,0,367,93,0,212,66,0,360,101,0,199,83,0,367,94,0,211,67,1,366,93,0,211,66,0,365,94,0,210,67,0,1,487,0,8,271,0,362,98,0,208,69,0,364,97,0,209,68,0,0,488,0,0,272,0,0,488,0,0,272,0,0,488,0,24,272,0,363,97,0,209,68,0,399,42,45,222,39,41
2017-07-02T23:59:59Z,271,491,467,262,491,271,445,256,58,55,0,0,0,0,0,0,0,491,0,271,6,481,3,264,0,0,0,0,0,0,0,0,346,109,7,189,75,25,361,103,0,197,81,0,369,94,0,212,65,0,358,106,0,195,83,0,367,97,0,211,66,0,365,97,0,210,66,0,365,97,0,210,66,0,0,491,0,6,271,0,361,102,0,207,69,0,362,102,0,207,69,0,0,491,0,0,271,0,0,491,0,0,271,0,0,491,0,23,271,0,363,100,0,208,67,0,402,44,43,222,38,40
2017-07-03T23:59:59Z,269,485,462,259,485,269,441,255,60,56,0,0,0,0,0,0,0,485,0,269,5,476,3,263,0,0,0,0,0,0,0,0,344,107,5,188,73,26,356,102,0,197,81,1,361,96,0,209,66,1,357,101,0,196,82,1,364,94,0,210,66,1,363,93,0,210,65,1,361,95,0,209,65,1,3,482,0,8,268,1,358,99,0,207,67,1,358,100,0,206,68,2,0,485,0,0,269,1,0,485,0,0,269,1,0,485,0,23,269,1,357,100,0,207,68,1,393,47,43,219,40,40
2017-07-04T23:59:59Z,274,495,472,264,495,274,443,259,61,58,0,0,0,0,0,0,0,495,0,274,6,485,4,267,0,0,0,0,0,0,0,0,351,109,6,192,76,27,361,107,0,198,86,2,372,95,0,214,67,1,367,101,0,201,82,1,373,95,0,214,67,1,372,94,0,214,66,1,372,94,0,214,66,1,3,492,0,8,273,1,369,99,0,212,69,1,370,98,0,212,68,1,0,495,0,0,274,1,0,495,0,0,274,1,0,495,0,24,274,1,369,98,0,213,68,1,403,45,45,225,39,42
2017-07-05T23:59:59Z,274,497,474,264,497,274,452,258,57,56,0,0,0,0,0,0,2,495,1,273,6,487,4,267,0,0,0,0,0,0,0,0,352,110,6,192,75,27,366,104,0,200,82,1,372,97,0,215,65,1,362,108,0,198,86,1,373,97,0,215,65,1,371,97,0,214,65,1,370,98,0,214,66,1,1,496,0,7,273,1,367,103,0,210,69,1,366,104,0,210,70,1,0,497,0,0,274,1,0,497,0,0,274,1,0,497,0,25,274,1,368,101,0,212,69,1,404,47,44,224,39,42
2017-07-06T23:59:59Z,270,491,469,260,491,270,421,247,56,54,0,0,0,0,0,0,2,489,1,269,6,481,4,263,0,0,0,0,0,0,0,0,352,105,6,190,74,26,366,99,0,199,81,1,371,93,0,211,65,1,368,97,0,200,81,1,373,92,0,212,66,1,370,93,0,210,67,1,369,94,0,209,66,1,2,489,0,7,270,1,365,100,0,206,70,1,366,99,0,206,69,1,0,491,0,0,270,1,0,491,0,0,270,1,0,491,0,23,270,1,367,97,0,208,67,1,404,45,40,222,38,39
2017-07-07T23:59:59Z,272,495,472,262,495,272,468,258,56,56,0,0,0,0,0,0,2,493,1,271,6,485,4,265,0,0,0,0,0,0,0,0,355,105,8,192,74,27,370,101,0,200,83,1,377,92,0,213,64,1,370,100,0,200,81,2,375,95,0,213,67,1,374,94,0,211,66,2,374,94,0,213,66,1,0,495,0,7,272,1,371,99,0,209,69,1,371,99,0,208,69,1,0,495,0,0,272,1,0,495,0,0,272,1,0,495,0,25,272,1,372,97,0,210,67,1,407,45,41,223,40,40
2017-07-08T23:59:59Z,273,500,477,263,500,273,473,259,57,54,0,0,0,0,0,0,2,498,1,272,6,489,4,265,0,0,0,0,0,0,0,0,355,109,8,191,75,27,373,103,0,203,81,1,379,94,0,214,63,1,371,103,0,200,81,1,378,96,0,213,65,1,375,97,0,211,66,2,375,97,0,212,66,1,1,499,0,7,272,1,372,102,0,209,69,1,372,102,0,209,69,1,0,500,0,0,273,1,0,500,0,0,273,1,0,500,0,23,273,1,374,99,0,211,66,1,411,46,41,224,38,40
2017-07-09T23:59:59Z,274,500,477,264,500,274,474,261,51,50,0,0,0,0,0,0,2,498,1,273,6,490,4,267,0,0,0,0,0,0,0,0,357,105,9,192,73,28,373,103,0,201,83,1,379,93,0,213,64,1,374,100,0,202,79,1,380,93,0,215,64,1,378,93,0,214,64,1,379,92,0,214,63,1,1,499,0,7,273,1,375,98,0,210,67,1,376,97,0,211,66,1,0,500,0,0,274,1,0,500,0,0,274,1,0,500,0,23,274,1,375,97,0,211,66,1,417,41,40,229,35,40
2017-07-10T23:59:59Z,276,509,486,266,509,276,482,263,53,53,0,0,0,0,0,0,2,507,1,275,6,498,4,268,0,0,0,0,0,0,0,0,363,110,7,194,77,27,382,103,0,205,84,1,385,96,0,215,66,1,383,100,0,206,82,1,387,96,0,218,67,1,384,97,0,216,67,1,386,95,0,217,65,1,2,507,0,7,276,1,381,101,0,213,69,1,381,101,0,212,69,1,0,509,0,0,276,1,0,509,0,0,276,1,0,509,0,24,276,1,381,100,0,214,68,1,417,48,42,227,41,41
2017-07-11T23:59:59Z,275,504,481,265,504,275,478,262,57,54,0,0,0,0,0,0,2,502,1,274,6,494,4,268,0,0,0,0,0,0,0,0,361,109,6,194,76,26,378,103,0,204,83,1,379,97,2,214,65,2,373,105,1,202,83,2,380,98,0,216,66,1,379,97,0,214,65,2,378,98,0,215,66,1,4,500,0,9,274,1,374,103,0,211,69,1,373,104,0,210,70,1,0,504,0,0,275,1,0,504,0,0,275,1,0,504,0,23,275,1,375,101,0,212,67,1,413,46,43,227,38,41
2017-07-12T23:59:59Z,275,499,477,265,498,274,476,264,57,56,0,0,0,0,0,0,0,499,0,275,5,490,3,269,0,0,0,0,0,0,0,0,358,106,7,193,74,27,375,102,0,204,82,1,379,94,0,216,65,1,369,105,0,201,85,1,380,93,0,217,64,1,378,93,0,216,64,1,378,93,0,216,64,1,1,498,0,7,274,1,374,98,0,212,67,1,373,99,0,211,68,1,0,499,0,0,275,1,0,499,0,0,275,1,0,499,0,24,275,1,374,98,0,213,67,1,409,48,40,225,39,39
2017-07-13T23:59:59Z,277,501,477,266,501,277,474,263,60,58,0,0,0,0,0,0,2,499,1,276,6,490,4,270,0,0,0,0,0,0,0,0,359,108,6,195,76,27,372,107,0,203,87,1,377,98,0,217,67,1,368,108,0,202,86,1,376,99,0,216,68,1,373,100,0,215,69,1,376,97,0,217,66,1,1,500,0,7,276,1,371,103,0,213,70,1,371,103,0,213,70,1,0,501,0,0,277,1,0,501,0,0,277,1,0,501,0,24,277,1,372,102,0,213,69,1,408,49,42,225,41,40
2017-07-14T23:59:59Z,275,499,474,264,499,275,471,261,61,58,0,0,0,0,0,0,2,497,1,274,6,487,4,266,0,0,0,0,0,0,0,0,354,111,8,190,76,28,368,110,0,199,87,1,376,99,0,213,67,1,369,107,0,201,84,1,376,98,0,215,66,1,376,97,0,215,65,1,375,98,0,215,66,1,0,499,0,6,275,1,372,101,0,211,69,1,372,101,0,210,69,1,0,499,0,0,275,1,0,499,0,0,275,1,0,499,0,23,275,1,370,103,0,209,69,1,411,47,39,227,39,39
2017-07-15T23:59:59Z,273,498,472,262,498,273,468,259,57,56,0,0,0,0,0,0,0,498,0,273,6,488,3,266,0,0,0,0,0,0,0,0,353,113,6,191,78,26,366,111,0,197,88,0,371,103,0,211,70,0,365,110,0,197,87,0,373,100,0,213,67,0,372,100,0,213,67,0,371,101,0,213,68,0,0,498,0,7,273,0,367,105,0,209,70,0,366,106,0,208,71,0,0,498,0,0,273,0,0,498,0,0,273,0,0,498,0,25,273,0,367,105,0,208,70,0,404,49,43,221,41,43
2017-07-16T23:59:59Z,275,498,471,262,498,275,467,259,60,59,0,0,0,0,0,0,1,497,1,274,6,487,3,267,0,0,0,0,0,0,0,0,350,114,8,191,79,28,367,110,0,200,89,0,375,98,0,215,68,0,367,108,0,203,87,0,374,99,0,214,68,0,374,98,0,215,67,0,372,100,0,214,69,0,2,496,0,8,274,0,370,102,0,211,69,0,370,102,0,211,69,0,0,498,0,0,275,0,0,498,0,0,275,0,0,498,0,25,275,0,368,104,0,210,71,0,403,51,42,223,41,41
2017-07-17T23:59:59Z,273,494,466,259,494,273,463,256,56,55,0,0,0,0,0,0,0,494,0,273,6,484,3,266,0,0,0,0,0,0,0,0,344,116,8,186,80,27,367,106,0,201,85,0,373,97,0,214,67,0,364,107,0,201,86,0,369,100,0,212,68,0,368,100,0,212,68,0,369,99,0,213,67,0,0,494,0,6,273,0,364,104,0,207,70,0,363,105,0,206,71,0,0,494,0,0,273,0,0,494,0,0,273,0,0,494,0,23,273,0,363,105,0,207,71,0,400,49,43,222,41,41
2017-07-18T23:59:59Z,273,490,463,259,490,273,461,258,59,58,0,0,0,0,0,0,0,490,0,273,6,480,3,266,0,0,0,0,0,0,0,0,347,112,5,189,78,26,364,105,0,200,84,0,369,97,0,213,66,0,361,106,0,199,85,0,367,98,0,211,67,0,368,96,0,213,67,0,368,96,0,212,67,0,1,489,0,7,272,0,365,99,0,209,68,0,364,100,0,208,69,0,0,490,0,0,273,0,0,490,0,0,273,0,0,490,0,24,273,0,364,100,0,208,69,0,399,49,40,221,41,39
2017-07-19T23:59:59Z,273,491,464,259,491,273,462,258,57,59,0,0,0,0,0,0,2,489,1,272,6,480,3,265,0,0,0,0,0,0,0,0,342,116,7,186,82,26,362,108,0,199,87,0,368,99,0,211,67,0,361,107,0,200,86,0,366,100,0,211,68,0,366,99,0,211,67,0,366,99,0,211,67,0,0,491,0,6,273,0,361,104,0,207,70,0,361,104,0,207,70,0,0,491,0,0,273,0,0,491,0,0,273,0,0,491,0,25,273,0,362,103,0,207,69,0,400,49,40,221,41,39
2017-07-20T23:59:59Z,274,493,466,260,493,274,464,259,62,58,0,0,0,0,0,0,2,491,1,273,6,481,3,265,0,0,0,0,0,0,0,0,351,111,7,193,77,25,368,105,0,201,85,0,374,96,0,215,65,0,367,104,0,203,85,0,374,95,0,215,65,0,371,97,0,213,67,0,371,97,0,214,67,0,1,492,0,7,273,0,367,101,0,211,68,0,366,102,0,209,69,0,1,492,0,1,273,1,0,492,1,1,273,1,0,493,0,25,274,0,367,101,0,209,68,0,403,47,41,225,39,40
2017-07-21T23:59:59Z,272,494,467,258,494,272,465,256,64,59,0,0,0,0,0,0,0,494,0,272,6,483,3,264,0,0,0,0,0,0,0,0,349,113,8,191,78,26,369,106,0,203,86,0,373,98,0,214,66,0,367,105,0,203,85,0,375,95,0,215,65,0,372,96,0,214,65,0,371,98,0,214,67,0,2,492,0,7,272,0,367,102,0,209,68,0,366,102,0,209,68,0,0,494,0,0,272,0,0,494,0,0,272,0,0,494,0,23,272,0,369,99,0,210,67,0,401,47,44,223,39,41
2017-07-22T23:59:59Z,273,494,466,259,493,273,462,256,55,55,0,0,0,0,0,0,0,493,0,273,6,482,3,265,0,0,0,0,0,0,0,0,348,113,8,190,79,26,369,105,0,202,84,0,374,96,0,214,65,0,365,106,0,201,85,0,370,99,0,212,68,0,370,97,0,212,66,0,371,97,0,213,66,0,1,492,0,7,272,0,367,101,0,210,68,0,367,100,0,209,67,0,0,493,0,0,273,0,0,493,0,0,273,0,0,494,0,23,273,0,367,100,0,210,67,0,401,45,45,223,39,41
2017-07-23T23:59:59Z,271,488,461,257,488,271,458,254,61,57,0,0,0,0,0,0,0,488,0,271,6,478,3,264,0,0,0,0,0,0,0,0,348,110,6,189,77,25,366,103,0,201,83,0,370,95,0,212,65,0,360,106,0,198,86,0,366,98,0,209,68,0,366,96,0,209,66,0,366,97,0,210,67,0,1,487,0,7,270,0,364,99,0,207,69,0,363,99,0,207,68,0,0,488,0,0,271,0,0,488,0,0,271,0,0,488,0,23,271,0,364,98,0,207,68,0,399,45,42,221,39,40
2017-07-24T23:59:59Z,275,490,463,261,490,275,461,259,56,57,0,0,0,0,0,0,0,490,0,275,5,480,2,268,0,0,0,0,0,0,0,0,348,109,8,192,78,26,369,101,0,204,84,0,372,94,0,215,66,0,366,101,0,203,84,0,371,94,0,214,66,0,370,93,0,213,65,0,370,94,0,213,66,0,0,490,0,7,275,0,367,98,0,210,68,0,366,98,0,209,68,0,0,490,0,0,275,0,0,490,0,0,275,0,0,490,0,24,275,0,365,98,0,208,68,0,400,46,42,223,42,40
2017-07-25T23:59:59Z,273,493,465,258,493,273,462,256,56,57,0,0,0,0,0,0,0,493,0,273,5,484,2,267,0,0,0,0,0,0,0,0,349,112,7,190,80,25,370,103,0,203,84,0,374,95,0,213,66,0,365,105,0,201,86,0,373,95,0,213,66,0,371,95,0,212,66,0,372,95,0,213,66,0,0,493,0,6,273,0,369,99,0,210,68,0,367,100,0,209,69,0,0,493,0,0,273,0,0,493,0,0,273,0,0,493,0,23,273,0,367,99,0,209,68,0,400,49,42,222,43,40
2017-07-26T23:59:59Z,271,491,463,256,491,271,461,255,52,53,0,0,0,0,0,0,0,491,0,271,5,482,2,265,0,0,0,0,0,0,0,0,350,110,6,191,79,25,369,102,0,202,84,0,373,94,0,214,66,0,363,105,0,201,85,0,371,95,0,213,65,0,369,95,0,212,65,0,370,95,0,213,65,0,0,491,0,6,271,0,365,101,0,209,69,0,365,100,0,208,68,0,0,491,0,0,271,0,0,491,0,0,271,0,0,491,0,24,271,0,365,99,0,208,67,0,398,47,44,220,41,41
2017-07-27T23:59:59Z,272,485,456,257,485,272,454,255,54,55,0,0,0,0,0,0,0,484,0,272,6,474,3,265,0,0,0,0,0,0,0,0,345,109,5,190,78,25,362,102,1,202,85,1,366,94,0,213,66,0,362,99,1,203,82,1,365,94,0,213,66,0,362,95,0,211,67,0,364,94,0,212,66,0,0,484,0,7,272,1,360,99,0,208,69,0,360,98,0,207,68,0,0,484,0,0,272,0,0,484,0,0,272,0,0,485,0,26,272,0,359,98,1,208,68,1,395,44,44,221,40,41
2017-07-28T23:59:59Z,274,492,464,259,492,274,461,256,57,56,0,0,0,0,0,0,2,490,1,273,6,482,3,267,0,0,0,0,0,0,0,0,343,115,9,187,81,28,365,107,0,200,87,0,369,99,0,212,68,0,364,105,0,201,86,0,369,98,0,212,67,0,367,99,0,211,68,0,369,97,0,213,66,0,0,492,0,6,274,1,362,105,0,207,72,0,361,105,0,206,72,0,0,492,0,0,274,0,0,492,0,0,274,0,0,492,0,25,274,0,363,102,0,207,69,0,400,46,44,223,40,42
2017-07-29T23:59:59Z,274,488,460,259,488,274,458,257,57,55,0,0,0,0,0,0,2,486,1,273,6,478,3,267,0,0,0,0,0,0,0,0,342,114,7,188,81,24,362,106,0,199,85,0,366,98,0,211,68,0,359,106,0,199,85,0,365,98,0,210,68,2,365,97,0,210,67,0,365,97,0,211,67,0,1,487,0,7,273,0,361,102,0,208,70,0,361,101,0,207,69,0,0,488,0,0,274,0,0,488,0,0,274,0,0,488,0,22,274,0,361,100,0,207,69,0,396,50,40,221,43,38
2017-07-30T23:59:59Z,270,487,459,256,487,270,458,255,57,54,0,0,0,0,0,0,2,485,1,269,6,477,3,263,0,0,0,0,0,0,0,0,341,112,9,188,78,26,361,106,0,199,84,0,366,97,0,211,66,0,358,106,0,200,84,0,366,96,0,211,65,0,365,96,0,210,65,0,364,97,0,211,66,0,1,486,0,7,269,0,360,102,0,207,69,0,360,101,0,206,68,0,0,487,0,0,270,0,0,487,0,0,270,0,0,487,0,22,270,0,361,99,0,206,68,0,396,47,42,220,41,39
2017-07-31T23:59:59Z,272,481,453,257,481,272,452,256,53,57,0,0,0,0,0,0,2,479,1,271,6,471,3,265,0,0,0,0,0,0,0,0,341,109,7,188,79,26,358,103,0,199,85,1,364,93,0,212,66,1,356,102,0,198,84,1,362,94,0,211,67,0,362,93,0,210,66,0,362,93,0,211,66,1,0,481,0,6,272,0,359,97,0,208,68,1,357,98,0,207,69,1,0,481,0,0,272,1,0,481,0,0,272,1,0,481,0,24,272,1,357,97,0,207,68,0,393,47,39,220,43,38
2017-08-01T23:59:59Z,269,482,454,254,482,269,452,252,55,57,0,0,0,0,0,0,0,482,0,269,5,473,3,263,0,0,0,0,0,0,0,0,343,108,6,188,77,26,359,103,0,198,84,1,365,93,0,211,65,1,356,102,0,199,83,1,364,92,0,212,64,1,364,91,0,211,63,1,364,91,0,212,63,1,1,481,0,7,269,1,360,97,0,208,67,1,358,98,0,207,68,2,0,482,0,0,269,1,0,482,0,0,269,2,0,482,0,23,269,1,361,93,0,208,65,1,393,46,41,218,41,39
2017-08-02T23:59:59Z,269,478,450,254,478,269,448,252,50,52,0,0,0,0,0,0,0,478,0,269,6,468,3,262,0,0,0,0,0,0,0,0,343,104,7,189,74,25,359,100,0,200,82,0,365,90,0,212,63,0,355,100,0,199,82,0,363,90,0,211,63,0,362,90,0,210,63,0,362,90,0,211,63,0,1,477,0,7,268,0,358,96,0,208,67,0,357,96,0,207,67,0,0,478,0,0,269,0,0,478,0,0,269,0,0,478,0,22,269,0,359,92,0,208,65,0,389,46,41,219,41,39
2017-08-03T23:59:59Z,270,480,452,255,480,270,450,253,50,53,0,0,0,0,0,0,0,480,0,270,6,470,3,263,0,0,0,0,0,0,0,0,344,106,6,190,75,24,361,100,0,199,82,0,366,91,0,213,63,0,359,98,0,201,80,0,365,90,0,214,62,0,364,90,0,212,62,0,362,92,0,212,64,0,0,480,0,6,270,0,360,96,0,209,68,0,360,95,0,208,67,0,0,480,0,0,270,0,0,480,0,0,270,0,0,480,0,24,270,0,360,93,0,209,65,0,392,46,40,219,41,38
2017-08-04T23:59:59Z,272,485,457,258,485,272,454,256,49,50,0,0,0,0,0,0,0,485,0,272,6,475,3,265,0,0,0,0,0,0,0,0,346,107,8,192,75,25,361,105,0,200,85,0,368,94,0,214,65,0,360,102,0,201,82,0,367,93,0,214,64,0,367,92,0,213,63,0,366,93,0,213,64,0,0,485,0,6,272,0,362,99,0,210,68,0,362,98,0,209,67,0,0,485,0,0,272,0,0,485,0,0,272,1,0,485,0,22,272,0,360,98,0,208,67,0,397,45,41,222,40,39
2017-08-05T23:59:59Z,268,480,453,253,480,268,452,252,50,49,0,0,0,0,0,0,0,480,0,268,6,470,3,261,0,0,0,0,0,0,0,0,345,106,5,191,74,23,361,100,0,201,80,0,365,92,0,212,63,0,360,97,0,202,79,0,367,88,0,213,61,0,365,89,0,212,62,0,364,90,0,212,63,0,2,478,0,7,268,0,361,95,0,209,66,0,360,95,0,208,66,0,0,480,0,0,268,0,0,480,0,0,268,0,0,480,0,22,268,0,358,95,0,207,64,1,391,45,42,218,40,38
2017-08-06T23:59:59Z,270,481,454,255,481,270,451,252,52,52,0,0,0,0,0,0,2,479,1,269,6,471,3,263,0,0,0,0,0,0,0,0,346,105,6,192,75,24,366,96,0,205,79,0,365,93,0,213,64,0,360,98,0,202,79,0,365,91,0,213,62,0,363,92,0,212,63,0,363,92,0,213,63,0,0,481,0,6,270,0,360,97,0,209,68,0,358,98,0,207,67,0,0,481,0,0,270,0,0,481,0,0,270,0,0,481,0,22,270,0,358,96,0,208,65,0,392,45,42,221,40,38
2017-08-07T23:59:59Z,269,480,453,255,480,269,450,253,48,49,0,0,0,0,0,0,2,478,1,268,6,470,3,262,0,0,0,0,0,0,0,0,342,108,6,190,75,23,361,100,0,200,80,0,364,93,0,211,63,0,360,97,0,202,77,0,365,90,0,213,60,0,362,92,0,211,62,0,361,93,0,211,63,0,0,480,0,6,269,0,357,99,0,207,67,0,356,99,0,206,67,0,0,480,0,0,269,0,0,480,0,0,269,0,0,480,0,23,269,0,358,95,0,207,63,0,393,45,40,220,40,37
2017-08-08T23:59:59Z,270,480,453,255,480,270,451,253,47,51,0,0,0,0,0,0,0,480,0,270,5,471,2,264,0,0,0,0,0,0,0,0,348,101,7,192,72,23,365,96,0,202,79,0,369,88,0,213,62,0,361,96,0,201,79,0,369,86,0,213,60,0,368,86,0,212,60,0,367,87,0,213,61,0,0,480,0,6,270,0,363,92,1,208,64,1,362,93,0,208,65,0,0,480,0,0,270,0,0,480,0,0,270,0,0,480,0,22,270,0,363,90,0,208,62,0,392,44,42,220,41,38
2017-08-09T23:59:59Z,269,484,458,255,484,269,456,254,54,51,0,0,0,0,0,0,1,483,1,268,6,473,3,261,0,0,0,0,0,0,0,0,349,105,5,193,75,22,363,102,0,201,83,0,371,89,0,214,62,0,361,101,0,202,80,0,368,90,0,213,61,0,366,91,0,212,62,0,368,91,0,213,61,0,1,483,0,7,268,0,363,96,0,209,67,0,363,95,0,208,66,0,0,484,0,0,269,0,1,483,0,1,268,0,0,484,0,21,269,0,360,95,1,206,64,1,391,47,44,220,41,40
2017-08-10T23:59:59Z,268,476,451,255,476,268,450,254,55,53,0,0,0,0,0,0,0,476,0,268,6,466,3,261,0,0,0,0,0,0,0,0,340,105,7,190,73,23,359,97,1,201,78,1,363,90,0,211,61,0,357,97,0,201,78,0,361,89,1,210,60,1,359,89,1,209,60,1,361,90,0,211,61,0,0,476,0,6,268,0,357,95,0,207,64,0,354,97,0,205,66,0,1,475,0,1,267,0,0,476,0,0,268,0,0,476,0,21,268,0,355,93,1,205,62,1,384,46,44,217,40,40
2017-08-11T23:59:59Z,269,479,453,255,478,268,452,254,50,48,0,0,0,0,0,0,1,478,1,268,6,469,3,262,0,0,0,0,0,0,0,0,341,107,7,191,74,21,360,100,0,200,79,0,363,93,0,211,63,0,356,101,0,198,80,0,362,92,0,210,62,0,360,93,0,209,63,0,362,92,0,210,62,0,0,479,0,6,269,0,357,98,0,206,66,0,355,98,1,204,66,1,0,479,0,0,269,0,0,479,0,0,269,0,0,479,0,21,269,0,356,96,0,205,64,0,387,45,45,219,39,40
2017-08-12T23:59:59Z,268,480,454,255,478,267,453,254,53,51,0,0,0,0,0,0,0,479,0,268,6,469,3,261,0,0,0,0,0,0,0,0,345,104,5,192,73,23,360,99,0,201,80,1,365,90,0,214,62,1,360,96,0,203,77,1,364,89,0,214,61,1,363,89,0,213,61,1,364,89,0,214,61,1,3,476,0,8,267,1,358,96,0,209,64,1,355,97,1,207,65,2,1,478,0,1,267,1,0,478,1,0,267,2,0,480,0,22,268,1,356,95,0,208,63,0,386,46,45,218,40,40
2017-08-13T23:59:59Z,267,486,457,255,486,267,456,254,58,54,0,0,0,0,0,0,0,485,0,267,5,477,2,261,0,0,0,0,0,0,0,0,344,110,7,189,73,24,362,104,0,199,81,0,368,94,0,212,62,0,362,101,0,200,78,0,367,93,0,212,61,0,366,93,0,211,61,0,368,92,0,212,60,0,0,486,0,5,267,0,361,100,0,207,66,0,361,99,0,206,65,0,0,486,0,0,267,0,0,486,0,0,267,0,0,486,0,22,267,0,363,95,0,208,63,0,393,47,44,218,40,41
2017-08-14T23:59:59Z,271,487,458,258,487,271,456,256,57,53,0,0,0,0,0,0,0,486,0,271,6,477,3,264,0,0,0,0,0,0,0,0,350,105,7,192,71,24,368,99,0,203,77,0,373,90,0,216,60,0,366,98,0,203,76,0,372,89,0,215,59,0,371,89,0,214,59,0,372,89,0,215,59,0,1,486,0,6,270,0,367,95,0,211,63,0,365,96,0,210,64,0,0,487,0,0,271,0,0,487,0,0,271,0,0,487,0,21,271,0,366,93,0,210,61,0,396,48,41,222,40,40
2017-08-15T23:59:59Z,272,495,466,259,495,272,463,256,49,50,0,0,0,0,0,0,0,494,0,272,6,485,3,265,0,0,0,0,0,0,0,0,357,105,8,193,72,25,376,99,0,205,78,0,381,90,0,217,61,0,371,101,0,203,78,0,376,93,0,214,62,0,375,93,0,213,62,0,376,93,0,214,62,0,0,495,0,5,272,0,372,98,0,211,65,0,370,99,0,209,66,0,0,495,0,0,272,0,0,495,0,0,272,0,0,495,0,21,272,0,372,95,0,210,62,0,404,47,42,223,40,40